Вернуться в каталог

CYGFM07

АктивенПогодаVLEO
NORAD 41890·PAYLOAD·🇺🇸 United States

Запущен Dec 15, 2016 с Cape Canaveral Space Force Station

Loading…

Ближайшие Пролёты (ближайшие 24 часа)

TLE

СвежийSource: Space-Track

Эпоха: Sep 14, 2026, 14:24 UTC

1 41890U 16078G   26257.60022474  .00029818  00000-0  29344-3 0  9994
2 41890  34.9448 352.2232 0004489 337.7338  22.3194 15.64928653542993

Отслеживайте CYGFM07 в реальном времени с AllMySat

Download on the App Store